Location: Lavington
(51.2833°N, 1.9833°W)
Time: 04:23:33
(UTC+00:00)

BREEZE-M DEB (TANK) - Pass Details

Date: 01 June 2020
Orbit: 303 x 15758 km, 49.4° (Epoch: 07 July)

Event Time Altitude Azimuth Distance (km) Brightness Sun altitude
Rises 21:19:29 0° 236° (SW) 11,503 9.1 -7.9°
Reaches altitude 10° 21:31:16 10° 235° (SW) 7,785 8.1 -9.0°
Maximum altitude 21:48:21 56° 164° (SSE) 1,488 4.1 -10.5°
Drops below altitude 10° 21:52:45 10° 85° (E) 2,144 5.1 -10.9°
Sets 21:54:09 0° 80° (E) 2,728 5.7 -11.0°
